WA1DLZ Weather Reports


time (UTC)temp
F
wind
direction
speed
knots
gust
knots
rain 1hr
in
rain 24hr
in
rain mn
in
humidity
%
barometer
mb
20260508054504 40 229 0.0 0.0 0.00 0.00 0.00 66 1005.9
20260508054004 40 229 0.0 0.0 0.00 0.00 0.00 65 1005.9
20260508053004 40 229 0.0 0.0 0.00 0.00 0.00 65 1006.0
20260508052504 40 229 0.0 0.0 0.00 0.00 0.00 65 1006.0
20260508052004 40 229 0.0 0.0 0.00 0.01 0.00 67 1006.0
20260508051504 40 229 0.0 0.0 0.00 0.02 0.00 67 1005.9
20260508051004 39 229 0.0 0.0 0.00 0.03 0.00 69 1006.0
20260508050505 40 229 0.0 0.0 0.00 0.03 0.00 69 1006.0
20260508050004 39 229 0.0 0.0 0.00 0.04 0.00 68 1006.0
20260508045504 39 229 0.0 0.0 0.00 0.06 0.00 68 1006.0
20260508045004 39 229 0.0 0.0 0.00 0.07 0.00 70 1006.0
20260508044505 39 229 0.0 0.0 0.00 0.07 0.00 71 1006.1
20260508044004 40 229 0.0 0.0 0.00 0.08 0.00 72 1006.1
20260508043504 40 229 0.0 0.0 0.00 0.09 0.00 67 1006.2
20260508043004 41 229 0.0 0.0 0.00 0.09 0.00 67 1006.1
20260508042504 41 229 0.0 0.0 0.00 0.09 0.00 64 1006.1
20260508042005 41 229 0.0 0.0 0.00 0.09 0.00 64 1006.1
20260508041502 41 229 0.0 0.0 0.00 0.10 0.00 64 1006.1
20260508041003 41 229 0.0 0.0 0.00 0.10 0.00 64 1006.2
20260508040503 41 229 0.0 0.0 0.00 0.10 0.00 64 1006.1
20260508035503 41 229 0.0 0.0 0.00 0.13 0.12 63 1006.2
20260508035002 42 229 0.0 0.0 0.00 0.15 0.12 63 1006.2
20260508034503 42 229 0.0 0.0 0.00 0.16 0.12 65 1006.2
20260508034002 43 229 0.0 0.0 0.00 0.17 0.12 60 1006.2
20260508033003 44 229 0.0 0.0 0.00 0.22 0.12 58 1006.3
20260508032502 44 229 0.0 0.9 0.00 0.22 0.12 58 1006.2
20260508032003 44 229 0.9 2.6 0.00 0.23 0.12 56 1006.1
20260508031002 43 228 0.9 6.1 0.00 0.24 0.12 58 1006.1
20260508030503 43 227 0.0 2.6 0.00 0.24 0.12 58 1006.1
20260508025503 43 227 2.6 6.1 0.00 0.25 0.12 60 1005.9
20260508023503 44 235 0.9 6.1 0.00 0.26 0.12 57 1006.1
20260508022502 43 301 0.9 2.6 0.00 0.27 0.12 58 1006.1
20260508022003 43 339 0.0 0.0 0.00 0.27 0.12 59 1006.1
20260508021502 43 340 0.0 0.0 0.00 0.28 0.12 58 1006.1
20260508021003 43 340 0.0 0.0 0.00 0.28 0.12 58 1006.1
20260508020503 43 340 0.0 0.0 0.00 0.28 0.12 58 1006.1
20260508020002 43 340 0.0 0.0 0.00 0.28 0.12 58 1006.0
20260508015503 44 340 0.0 0.0 0.00 0.28 0.12 59 1006.1
20260508015003 44 340 0.0 0.0 0.00 0.28 0.12 59 1006.2
20260508014503 44 340 0.0 0.0 0.00 0.28 0.12 59 1006.3
20260508014002 44 340 0.0 0.0 0.00 0.29 0.12 59 1006.3
20260508013503 44 340 0.0 2.6 0.00 0.29 0.12 60 1006.3
20260508013003 44 344 0.9 2.6 0.00 0.29 0.12 60 1006.3
20260508012503 44 355 0.0 0.9 0.00 0.29 0.12 60 1006.2
20260508012003 44 349 0.9 5.2 0.00 0.29 0.12 60 1006.1
20260508011503 44 336 0.0 0.0 0.00 0.29 0.12 59 1006.1
20260508011003 45 336 0.0 0.0 0.00 0.29 0.12 56 1006.1
20260508010502 45 336 0.0 0.0 0.00 0.29 0.12 55 1006.1
20260508010003 46 336 0.0 0.0 0.00 0.29 0.12 54 1006.0
20260508005002 46 336 0.0 0.0 0.00 0.29 0.12 51 1005.9
20260508004503 46 336 0.0 4.3 0.00 0.29 0.12 53 1005.8
20260508003503 47 304 1.7 2.6 0.00 0.29 0.12 55 1005.6
20260508003003 47 303 0.9 2.6 0.00 0.29 0.12 52 1005.4
20260508002003 49 303 0.9 5.2 0.00 0.29 0.12 48 1005.3
20260508001503 49 239 0.9 7.0 0.00 0.29 0.12 46 1005.3
20260508001002 49 355 1.7 7.0 0.00 0.29 0.12 47 1005.2
20260508000503 49 318 0.9 5.2 0.00 0.29 0.12 47 1005.1
20260508000003 49 333 0.9 2.6 0.00 0.30 0.12 48 1005.1
20260507235003 50 333 0.0 5.2 0.00 0.30 0.12 47 1005.1
20260507234503 50 332 0.9 7.8 0.00 0.30 0.12 47 1005.1
20260507234003 51 250 0.9 5.2 0.00 0.30 0.12 46 1005.0
20260507233503 51 313 0.9 5.2 0.00 0.30 0.12 46 1004.9
20260507233003 51 339 0.9 6.1 0.00 0.30 0.12 46 1004.8
20260507232503 51 321 1.7 7.0 0.00 0.30 0.12 46 1004.7
20260507232003 52 1 2.6 7.8 0.00 0.30 0.12 47 1004.7
20260507231503 52 340 1.7 4.3 0.00 0.30 0.12 45 1004.7
20260507231003 53 5 1.7 7.8 0.00 0.30 0.12 45 1004.5
20260507230003 53 333 0.9 7.0 0.00 0.30 0.12 45 1004.3
20260507225503 53 338 2.6 10.4 0.00 0.30 0.12 45 1004.3
20260507225003 53 322 0.9 6.1 0.00 0.30 0.12 47 1004.2
20260507224504 53 341 0.0 5.2 0.00 0.30 0.12 45 1004.1
20260507224003 54 325 0.9 2.6 0.00 0.30 0.12 45 1004.1
20260507223503 54 303 0.9 7.8 0.00 0.30 0.12 44 1004.0
20260507222503 56 357 2.6 7.0 0.00 0.30 0.12 43 1003.9
20260507222003 57 10 0.0 0.9 0.00 0.30 0.12 42 1003.9
20260507221503 57 338 0.0 2.6 0.00 0.31 0.12 41 1003.8
20260507221002 58 332 0.9 6.1 0.00 0.31 0.12 41 1003.7
20260507220503 58 349 3.5 7.8 0.00 0.31 0.12 40 1003.7
20260507220003 59 0 0.9 7.0 0.00 0.31 0.12 39 1003.6
20260507215503 59 342 1.7 7.0 0.00 0.32 0.12 41 1003.7
20260507215003 60 317 0.0 5.2 0.00 0.32 0.12 41 1003.6
20260507214503 60 10 0.9 5.2 0.00 0.32 0.12 42 1003.6
20260507214003 60 5 0.0 0.9 0.00 0.33 0.12 41 1003.5
20260507213503 59 10 0.9 5.2 0.00 0.33 0.12 43 1003.5
20260507213004 59 304 0.9 5.2 0.00 0.33 0.12 42 1003.4
20260507212503 59 344 2.6 10.4 0.00 0.33 0.12 43 1003.3
20260507212004 58 275 0.0 2.6 0.00 0.34 0.12 43 1003.2
20260507211503 58 350 0.9 4.3 0.00 0.34 0.12 43 1003.1
20260507210503 58 333 0.0 0.0 0.00 0.36 0.12 40 1002.9
20260507210003 59 5 1.7 5.2 0.00 0.36 0.12 41 1002.9
20260507205503 59 229 0.0 6.1 0.00 0.37 0.12 38 1002.7
20260507205003 60 231 4.3 11.3 0.00 0.37 0.12 38 1002.7
20260507204503 60 231 7.0 13.9 0.00 0.38 0.12 38 1002.6
20260507204003 58 208 5.2 13.9 0.00 0.38 0.12 39 1002.5
20260507203503 57 285 0.9 10.4 0.00 0.38 0.12 38 1002.5
20260507203003 58 238 0.9 7.0 0.00 0.38 0.12 39 1002.5
20260507202004 58 245 0.9 4.3 0.00 0.39 0.12 42 1002.3
20260507201503 58 240 0.0 0.0 0.00 0.39 0.12 41 1002.3
20260507200503 59 240 0.0 0.0 0.00 0.39 0.12 40 1002.3
20260507200003 59 240 0.9 8.7 0.00 0.40 0.12 40 1002.3
20260507195503 60 230 2.6 10.4 0.00 0.41 0.12 39 1002.3
20260507194003 62 255 2.6 10.4 0.00 0.42 0.12 39 1002.4
20260507193503 61 263 0.0 5.2 0.00 0.43 0.12 40 1002.3
20260507192003 59 236 0.0 5.2 0.00 0.47 0.12 46 1002.4
20260507191503 58 229 2.6 11.3 0.00 0.48 0.12 44 1002.4
20260507191003 58 212 2.6 13.9 0.00 0.51 0.12 44 1002.4
20260507190004 58 221 0.9 10.4 0.00 0.54 0.12 43 1002.5
20260507185503 59 313 1.7 12.2 0.00 0.55 0.12 45 1002.6
20260507185003 58 232 1.7 11.3 0.00 0.57 0.12 48 1002.5
20260507184003 58 217 0.9 7.0 0.00 0.59 0.12 51 1002.6
20260507183504 59 240 5.2 13.0 0.00 0.59 0.12 48 1002.6
20260507183003 61 262 0.9 10.4 0.00 0.60 0.12 47 1002.6
20260507182503 61 268 0.9 6.1 0.00 0.60 0.12 48 1002.6
20260507182003 61 263 3.5 13.9 0.00 0.61 0.12 48 1002.6
20260507181503 60 255 0.0 0.9 0.00 0.61 0.12 51 1002.7
20260507181004 61 272 0.0 7.8 0.00 0.62 0.12 52 1002.7
20260507180503 61 258 6.1 13.0 0.00 0.62 0.12 48 1002.7
20260507180004 60 273 1.7 7.0 0.00 0.62 0.12 52 1002.7
20260507174503 60 225 5.2 8.7 0.00 0.63 0.12 49 1002.7
20260507174003 61 235 1.7 10.4 0.00 0.63 0.12 48 1002.7
20260507173503 61 242 3.5 10.4 0.00 0.63 0.12 49 1002.7
20260507173004 61 237 0.9 7.0 0.00 0.63 0.12 50 1002.7
20260507172503 60 235 0.0 7.0 0.00 0.63 0.12 52 1002.8
20260507172004 59 295 0.9 8.7 0.00 0.63 0.12 55 1002.7
20260507171504 58 220 3.5 7.8 0.00 0.63 0.12 54 1002.8
20260507171003 58 241 0.9 4.3 0.00 0.63 0.12 54 1002.9
20260507170504 58 219 0.9 4.3 0.00 0.63 0.12 52 1003.0
20260507170003 60 233 0.9 4.3 0.00 0.63 0.12 51 1003.1
20260507165003 59 244 0.0 8.7 0.00 0.63 0.12 55 1003.1
20260507164503 59 234 0.9 2.6 0.00 0.63 0.12 52 1003.1
20260507164004 59 227 0.9 6.1 0.00 0.63 0.12 53 1003.2
20260507163503 59 254 1.7 7.0 0.00 0.63 0.12 57 1003.3
20260507163004 58 231 1.7 7.0 0.00 0.63 0.12 57 1003.3
20260507162504 58 296 0.9 2.6 0.00 0.63 0.12 57 1003.3
20260507161503 58 296 0.0 4.3 0.00 0.64 0.12 60 1003.4
20260507161003 57 309 0.0 0.9 0.00 0.64 0.12 63 1003.4
20260507160503 57 308 0.0 0.0 0.00 0.64 0.12 64 1003.5
20260507160003 57 308 0.0 1.7 0.00 0.64 0.12 63 1003.7
20260507155503 57 301 0.0 0.0 0.00 0.64 0.12 63 1003.7
20260507155003 57 355 0.0 0.0 0.00 0.64 0.12 64 1003.8
20260507154503 57 355 0.0 2.6 0.00 0.64 0.12 63 1003.9
20260507154004 57 321 0.0 0.0 0.00 0.64 0.12 62 1003.8
20260507153504 57 228 0.0 0.0 0.00 0.64 0.12 60 1003.8
20260507153003 58 227 0.0 0.0 0.00 0.64 0.12 60 1003.8
20260507152503 58 227 0.0 0.0 0.00 0.64 0.12 58 1003.7
20260507152003 58 229 0.0 2.6 0.00 0.64 0.12 60 1003.7
20260507151004 57 229 0.0 5.2 0.00 0.64 0.12 59 1003.8
20260507150503 57 248 1.7 6.1 0.00 0.64 0.12 59 1003.9
20260507150003 57 269 0.0 2.6 0.00 0.64 0.12 62 1003.9
20260507145503 57 269 0.9 6.1 0.00 0.64 0.12 63 1004.0
20260507145003 57 238 2.6 7.8 0.00 0.64 0.12 59 1004.0
20260507144503 57 232 0.0 0.9 0.00 0.64 0.12 65 1004.0
20260507144005 57 231 0.9 2.6 0.00 0.64 0.12 62 1004.1
20260507143504 56 230 0.0 4.3 0.00 0.64 0.12 63 1004.1
20260507142503 56 212 0.9 4.3 0.00 0.64 0.12 65 1004.2
20260507142003 56 286 0.0 1.7 0.00 0.64 0.12 67 1004.3
20260507141504 55 286 0.0 2.6 0.00 0.64 0.12 67 1004.3
20260507141003 55 291 0.0 0.9 0.00 0.64 0.12 67 1004.4
20260507140504 55 279 0.0 4.3 0.00 0.64 0.12 71 1004.4
20260507135504 53 266 0.0 2.6 0.00 0.64 0.12 71 1004.5
20260507135005 53 236 0.0 2.6 0.00 0.64 0.12 70 1004.6
20260507134503 52 287 0.0 5.2 0.00 0.64 0.12 72 1004.7
20260507134004 52 247 0.9 2.6 0.00 0.64 0.12 73 1004.6
20260507133004 51 269 0.0 2.6 0.00 0.64 0.12 76 1004.5
20260507132003 50 275 0.0 0.0 0.00 0.64 0.12 79 1004.6
20260507131504 49 275 0.0 0.0 0.00 0.64 0.12 80 1004.6
20260507131003 49 246 0.0 0.0 0.00 0.64 0.12 80 1004.6
20260507130504 49 242 0.0 6.1 0.00 0.64 0.12 81 1004.7
20260507130004 49 293 0.0 1.7 0.00 0.64 0.12 82 1004.7
20260507125504 49 257 0.0 0.0 0.00 0.64 0.12 82 1004.6
20260507125004 48 252 0.0 1.7 0.00 0.64 0.12 84 1004.7
20260507124003 48 247 0.0 4.3 0.00 0.64 0.12 85 1004.9
20260507123003 47 274 0.0 2.6 0.00 0.64 0.12 88 1004.8
20260507122503 47 306 0.0 5.2 0.00 0.64 0.12 88 1004.9
20260507122004 47 321 0.0 4.3 0.00 0.64 0.12 89 1004.8
20260507121503 46 252 0.0 1.7 0.00 0.64 0.12 89 1004.8
20260507121004 46 241 0.0 2.6 0.00 0.64 0.12 90 1004.8
20260507120504 46 247 0.9 2.6 0.00 0.64 0.12 91 1005.0
20260507115505 45 250 0.0 2.6 0.00 0.64 0.12 91 1005.3
20260507115004 45 299 0.0 0.0 0.00 0.64 0.12 91 1005.3
20260507114504 45 299 0.0 0.0 0.00 0.64 0.12 93 1005.3
20260507114004 45 298 0.0 0.0 0.00 0.64 0.12 93 1005.3
20260507113504 45 298 0.0 0.0 0.00 0.64 0.12 95 1005.1
20260507113004 44 298 0.0 0.0 0.00 0.64 0.12 95 1005.0
20260507112504 44 298 0.0 0.0 0.00 0.64 0.12 95 1005.1
20260507112004 44 298 0.0 0.0 0.00 0.64 0.12 95 1005.2
20260507111504 44 298 0.0 0.0 0.00 0.64 0.12 95 1005.3
20260507111004 44 298 0.0 5.2 0.00 0.64 0.12 96 1005.4
20260507110504 44 265 0.0 4.3 0.00 0.64 0.12 95 1005.4
20260507110004 43 293 0.0 4.3 0.00 0.64 0.12 95 1005.2
20260507105504 43 292 0.0 0.0 0.00 0.64 0.12 96 1005.2
20260507105004 43 292 0.0 0.0 0.00 0.64 0.12 96 1005.0
20260507104504 43 292 0.0 0.0 0.00 0.64 0.12 97 1005.1
20260507104004 43 292 0.0 0.0 0.00 0.64 0.12 97 1005.2
20260507103504 43 292 0.0 0.0 0.00 0.64 0.12 97 1005.2
20260507103003 43 292 0.0 0.0 0.00 0.64 0.12 97 1005.2
20260507102504 43 292 0.0 0.0 0.00 0.64 0.12 97 1005.1
20260507102003 43 292 0.0 0.0 0.00 0.64 0.12 97 1005.0
20260507101504 43 292 0.0 0.0 0.00 0.64 0.12 97 1004.9
20260507101004 43 292 0.0 0.0 0.00 0.64 0.12 97 1004.9
20260507100004 43 292 0.0 0.0 0.00 0.64 0.12 97 1004.5
20260507095503 43 292 0.0 0.0 0.00 0.64 0.12 97 1004.6
20260507095004 43 292 0.0 0.0 0.00 0.64 0.12 97 1004.7
20260507094504 43 293 0.0 0.0 0.00 0.64 0.12 98 1004.6
20260507094004 43 293 0.0 0.0 0.00 0.64 0.12 98 1004.6
20260507093504 43 346 0.0 0.0 0.00 0.64 0.12 98 1004.5
20260507092504 43 346 0.0 0.0 0.00 0.64 0.12 98 1004.6
20260507092004 43 346 0.0 0.0 0.00 0.64 0.12 98 1004.7
20260507091004 44 346 0.0 0.0 0.00 0.64 0.12 98 1004.9
20260507090504 44 346 0.0 0.0 0.00 0.64 0.12 98 1004.9
20260507090005 44 346 0.0 0.0 0.00 0.64 0.12 98 1004.9
20260507085503 44 346 0.0 0.0 0.00 0.64 0.12 98 1005.0
20260507085004 44 346 0.0 0.0 0.00 0.64 0.12 98 1004.7
20260507084504 44 346 0.0 0.0 0.00 0.64 0.12 98 1004.3
20260507084004 44 346 0.0 0.0 0.00 0.64 0.12 98 1004.1
20260507083504 44 346 0.0 0.0 0.00 0.64 0.12 98 1004.2
20260507083004 44 346 0.0 0.0 0.00 0.64 0.12 98 1004.2
20260507082504 45 346 0.0 0.0 0.00 0.64 0.12 98 1004.1
20260507082003 45 346 0.0 0.0 0.00 0.64 0.12 98 1004.4
20260507081503 45 346 0.0 0.0 0.00 0.64 0.12 98 1004.6
20260507081004 45 346 0.0 0.0 0.00 0.64 0.12 98 1004.7
20260507080504 45 349 0.0 0.0 0.00 0.64 0.12 98 1004.7
20260507080004 45 350 0.0 0.0 0.00 0.64 0.12 98 1004.7
20260507075504 45 353 0.0 0.0 0.00 0.64 0.12 98 1004.6
20260507075004 45 353 0.0 0.0 0.00 0.64 0.12 98 1004.8
20260507074004 45 355 0.0 0.0 0.00 0.64 0.12 98 1004.8
20260507073004 46 353 0.0 0.0 0.00 0.64 0.12 98 1004.5
20260507072504 46 355 0.0 0.0 0.00 0.64 0.12 98 1004.4
20260507072004 46 355 0.0 0.0 0.00 0.64 0.12 98 1004.4
20260507070504 46 355 0.0 0.0 0.00 0.64 0.12 98 1004.4
20260507070008 46 355 0.0 0.0 0.00 0.64 0.12 98 1004.2
20260507065004 46 355 0.0 0.0 0.00 0.64 0.12 98 1003.9
20260507064504 46 355 0.0 0.0 0.00 0.64 0.12 98 1003.8
20260507063504 47 355 0.0 0.0 0.00 0.64 0.12 98 1004.0
20260507063004 46 355 0.0 0.0 0.00 0.64 0.12 98 1004.0
20260507062504 46 355 0.0 0.0 0.00 0.64 0.12 98 1004.0
20260507062005 46 355 0.0 0.0 0.01 0.64 0.12 98 1004.0
20260507061503 46 355 0.0 0.0 0.02 0.64 0.12 98 1004.0
20260507061004 47 355 0.0 0.0 0.03 0.64 0.12 98 1004.0
20260507060504 47 355 0.0 0.0 0.03 0.64 0.12 98 1003.7
20260507060004 47 355 0.0 0.0 0.04 0.64 0.12 98 1003.5
20260507055504 47 355 0.0 0.0 0.06 0.64 0.12 98 1003.7
20260507055004 47 355 0.0 0.0 0.07 0.64 0.12 98 1003.6